GW1159 Weather Reports


time (UTC)temp
F
wind
direction
speed
knots
gust
knots
rain 1hr
in
rain 24hr
in
rain mn
in
humidity
%
barometer
mb
20260507201601 58 0 0.0 0.9 0.00 0.00 0.00 84 1014.2
20260507201051 58 0 0.0 0.0 0.00 0.00 0.00 84 1014.1
20260507200552 58 239 0.0 0.9 0.00 0.00 0.00 84 1014.0
20260507200057 58 0 0.0 0.9 0.00 0.00 0.00 83 1014.0
20260507195550 58 0 0.0 0.0 0.00 0.00 0.00 82 1014.0
20260507195047 58 0 0.0 1.7 0.00 0.00 0.00 81 1014.0
20260507194555 59 0 0.0 1.7 0.00 0.00 0.00 81 1013.9
20260507194050 59 239 0.0 1.7 0.00 0.00 0.00 81 1013.9
20260507193549 59 258 0.9 1.7 0.00 0.00 0.00 80 1013.9
20260507193100 60 266 0.9 1.7 0.00 0.00 0.00 80 1013.8
20260507192546 60 0 0.0 1.7 0.00 0.00 0.00 78 1013.8
20260507192050 61 293 0.0 1.7 0.00 0.00 0.00 76 1013.7
20260507191555 62 297 0.9 1.7 0.00 0.00 0.00 74 1013.6
20260507191048 63 0 0.0 1.7 0.00 0.00 0.00 72 1013.5
20260507190548 64 234 0.0 4.3 0.00 0.00 0.00 70 1013.5
20260507190059 65 0 0.0 4.3 0.00 0.00 0.00 68 1013.4
20260507185550 65 79 1.7 4.3 0.00 0.00 0.00 68 1013.4
20260507185051 64 158 0.0 2.6 0.00 0.00 0.00 69 1013.4
20260507184601 64 219 1.7 2.6 0.00 0.00 0.00 70 1013.3
20260507184046 64 219 1.7 2.6 0.00 0.00 0.00 70 1013.2
20260507183547 64 241 0.0 1.7 0.00 0.00 0.00 71 1013.1
20260507183056 65 240 0.0 1.7 0.00 0.00 0.00 70 1013.2
20260507182547 66 245 0.0 2.6 0.00 0.00 0.00 68 1013.1
20260507182047 66 0 0.0 2.6 0.00 0.00 0.00 66 1013.0
20260507181557 67 102 0.9 2.6 0.00 0.00 0.00 64 1012.9
20260507181047 67 73 0.0 2.6 0.00 0.00 0.00 64 1012.9
20260507180547 68 0 0.9 2.6 0.00 0.00 0.00 63 1012.9
20260507180055 68 126 0.0 2.6 0.00 0.00 0.00 63 1012.8
20260507175550 68 0 0.9 4.3 0.00 0.00 0.00 62 1012.7
20260507175050 69 0 0.9 4.3 0.00 0.00 0.00 61 1012.5
20260507174603 69 113 1.7 5.2 0.00 0.00 0.00 61 1012.5
20260507174051 69 84 1.7 5.2 0.00 0.00 0.00 59 1012.4
20260507173550 70 106 2.6 5.2 0.00 0.00 0.00 57 1012.4
20260507173102 70 106 2.6 7.0 0.00 0.00 0.00 55 1012.3
20260507172547 70 94 3.5 7.0 0.00 0.00 0.00 54 1012.3
20260507172046 71 108 1.7 5.2 0.00 0.00 0.00 53 1012.3
20260507171611 71 129 1.7 6.1 0.00 0.00 0.00 54 1012.2
20260507171047 71 100 1.7 7.0 0.00 0.00 0.00 54 1012.2
20260507170547 71 112 3.5 7.0 0.00 0.00 0.00 53 1012.0
20260507170055 71 141 3.5 6.1 0.00 0.00 0.00 53 1012.2
20260507165549 71 131 2.6 7.0 0.00 0.00 0.00 52 1012.2
20260507165049 71 9 3.5 7.0 0.00 0.00 0.00 52 1012.2
20260507164610 71 101 2.6 7.0 0.00 0.00 0.00 52 1012.2
20260507164052 72 127 3.5 7.0 0.00 0.00 0.00 52 1012.1
20260507163547 71 97 2.6 7.8 0.00 0.00 0.00 52 1012.1
20260507163055 71 30 4.3 7.8 0.00 0.00 0.00 51 1012.0
20260507162548 72 114 3.5 7.8 0.00 0.00 0.00 51 1011.9
20260507162051 72 140 1.7 7.8 0.00 0.00 0.00 52 1012.1
20260507161555 72 101 3.5 9.6 0.00 0.00 0.00 51 1012.2
20260507161050 72 109 1.7 9.6 0.00 0.00 0.00 52 1012.2
20260507160550 72 99 3.5 7.0 0.00 0.00 0.00 53 1012.2
20260507160052 71 125 2.6 8.7 0.00 0.00 0.00 52 1012.1
20260507155547 72 70 3.5 8.7 0.00 0.00 0.00 52 1012.2
20260507155048 72 127 2.6 7.8 0.00 0.00 0.00 53 1012.2
20260507154553 72 103 2.6 6.1 0.00 0.00 0.00 52 1012.3
20260507154051 71 75 2.6 6.1 0.00 0.00 0.00 52 1012.4
20260507153548 72 140 1.7 7.0 0.00 0.00 0.00 52 1012.3
20260507153051 71 56 3.5 7.0 0.00 0.00 0.00 52 1012.4
20260507152550 72 150 0.9 5.2 0.00 0.00 0.00 53 1012.5
20260507152051 72 142 2.6 7.0 0.00 0.00 0.00 53 1012.5
20260507151550 72 100 3.5 7.0 0.00 0.00 0.00 52 1012.5
20260507151050 72 88 3.5 7.0 0.00 0.00 0.00 52 1012.6
20260507150550 71 128 2.6 7.0 0.00 0.00 0.00 53 1012.7
20260507150057 71 0 1.7 7.8 0.00 0.00 0.00 52 1012.6
20260507145550 71 96 3.5 7.8 0.00 0.00 0.00 52 1012.6
20260507145049 72 98 4.3 7.8 0.00 0.00 0.00 52 1012.6
20260507144555 72 167 2.6 8.7 0.00 0.00 0.00 49 1012.6
20260507144051 73 101 2.6 8.7 0.00 0.00 0.00 47 1012.7
20260507143552 74 113 1.7 7.0 0.00 0.00 0.00 47 1012.6
20260507143104 74 129 0.9 3.5 0.00 0.00 0.00 44 1012.6
20260507142550 74 158 0.9 6.1 0.00 0.00 0.00 43 1012.7
20260507142048 73 0 1.7 12.2 0.00 0.00 0.00 45 1012.6
20260507141601 73 41 2.6 12.2 0.00 0.00 0.00 45 1012.5
20260507141048 73 1 4.3 8.7 0.00 0.00 0.00 45 1012.5
20260507140548 74 123 1.7 5.2 0.00 0.00 0.00 44 1012.5
20260507140051 74 97 0.9 4.3 0.00 0.00 0.00 43 1012.6
20260507135548 74 235 1.7 5.2 0.00 0.00 0.00 44 1012.7
20260507135050 74 199 2.6 6.1 0.00 0.00 0.00 43 1012.7
20260507134556 75 196 0.9 6.1 0.00 0.00 0.00 44 1012.7
20260507134049 74 214 1.7 6.1 0.00 0.00 0.00 44 1012.7
20260507133549 73 131 2.6 9.6 0.00 0.00 0.00 44 1012.7
20260507133057 73 136 3.5 9.6 0.00 0.00 0.00 44 1012.6
20260507132546 73 101 3.5 9.6 0.00 0.00 0.00 44 1012.6
20260507132050 74 122 1.7 7.0 0.00 0.00 0.00 43 1012.8
20260507131604 74 241 1.7 5.2 0.00 0.00 0.00 42 1012.8
20260507131051 74 235 1.7 5.2 0.00 0.00 0.00 44 1012.8
20260507130550 73 356 0.9 4.3 0.00 0.00 0.00 43 1012.8
20260507130100 74 131 2.6 4.3 0.00 0.00 0.00 41 1012.8
20260507125548 75 242 0.0 2.6 0.00 0.02 0.00 41 1012.8
20260507125049 75 34 0.9 3.5 0.00 0.02 0.00 40 1012.9
20260507124555 75 210 0.0 4.3 0.00 0.02 0.00 43 1012.9
20260507124051 74 0 0.9 4.3 0.00 0.02 0.00 42 1013.1
20260507123548 73 134 1.7 7.0 0.00 0.02 0.00 42 1013.0
20260507123051 73 83 1.7 7.0 0.00 0.02 0.00 45 1012.9
20260507122551 73 32 0.9 4.3 0.00 0.02 0.00 45 1013.0
20260507122048 73 44 1.7 3.5 0.00 0.02 0.00 44 1013.0
20260507121553 73 307 0.0 6.1 0.00 0.02 0.00 41 1013.1
20260507121052 72 335 0.9 6.1 0.00 0.02 0.00 44 1013.1
20260507120546 73 338 1.7 6.1 0.00 0.02 0.00 41 1013.1
20260507120057 73 94 1.7 4.3 0.00 0.02 0.00 43 1013.1
20260507115550 73 30 1.7 4.3 0.00 0.03 0.00 43 1013.1
20260507115048 72 44 1.7 5.2 0.00 0.03 0.00 45 1013.3
20260507114549 72 56 1.7 6.1 0.00 0.03 0.00 46 1013.2
20260507114047 72 343 2.6 6.1 0.00 0.03 0.00 43 1013.4
20260507113550 72 322 1.7 5.2 0.00 0.03 0.00 44 1013.4
20260507113053 73 28 2.6 4.3 0.00 0.03 0.00 43 1013.4
20260507112550 73 317 0.9 3.5 0.00 0.03 0.00 40 1013.4
20260507112047 73 0 0.0 3.5 0.00 0.03 0.00 41 1013.4
20260507111553 72 0 0.0 3.5 0.00 0.03 0.00 36 1013.4
20260507111050 72 70 1.7 4.3 0.00 0.03 0.00 41 1013.4
20260507110550 71 61 1.7 4.3 0.00 0.03 0.00 43 1013.6
20260507110105 71 95 0.9 6.1 0.00 0.03 0.00 42 1013.6
20260507105550 71 32 1.7 6.1 0.00 0.03 0.00 42 1013.6
20260507105051 71 103 1.7 7.0 0.00 0.03 0.00 42 1013.7
20260507104551 71 49 4.3 7.8 0.00 0.03 0.00 41 1013.8
20260507104050 71 100 2.6 7.8 0.00 0.03 0.00 43 1013.7
20260507103551 72 317 1.7 4.3 0.00 0.03 0.00 44 1013.6
20260507103054 72 333 0.0 3.5 0.00 0.03 0.00 39 1013.8
20260507102548 72 274 0.0 3.5 0.00 0.03 0.00 44 1013.9
20260507102048 71 297 0.9 3.5 0.00 0.03 0.00 45 1013.8
20260507101550 70 317 0.0 5.2 0.00 0.03 0.00 42 1013.9
20260507101050 70 19 1.7 5.2 0.00 0.03 0.00 44 1013.9
20260507100549 70 0 0.9 7.8 0.00 0.03 0.00 43 1013.9
20260507100052 70 269 0.9 7.8 0.00 0.03 0.00 44 1014.0
20260507095552 70 106 2.6 7.8 0.00 0.03 0.00 41 1014.0
20260507095051 70 201 0.0 4.3 0.00 0.03 0.00 44 1014.0
20260507094607 69 44 1.7 5.2 0.00 0.03 0.00 47 1014.0
20260507094051 70 32 1.7 5.2 0.00 0.03 0.00 46 1014.0
20260507093551 69 71 1.7 5.2 0.00 0.03 0.00 49 1014.1
20260507093058 69 50 1.7 4.3 0.00 0.03 0.00 49 1014.1
20260507092554 70 57 1.7 4.3 0.00 0.03 0.00 48 1014.0
20260507092050 69 58 0.9 3.5 0.00 0.03 0.00 52 1014.1
20260507091615 70 77 0.9 3.5 0.00 0.03 0.00 51 1014.0
20260507091050 69 4 0.9 3.5 0.00 0.03 0.00 53 1014.0
20260507090548 69 103 0.9 3.5 0.00 0.03 0.00 53 1014.0
20260507085553 68 211 0.0 4.3 0.00 0.13 0.00 52 1014.0
20260507085053 67 348 1.7 6.1 0.00 0.13 0.00 54 1014.0
20260507084555 68 39 0.9 6.1 0.00 0.13 0.00 53 1014.0
20260507084050 68 136 1.7 6.1 0.00 0.13 0.00 53 1013.9
20260507083551 68 92 1.7 4.3 0.00 0.13 0.00 52 1013.9
20260507083139 68 110 0.0 3.5 0.00 0.13 0.00 53 1014.0
20260507082551 67 89 1.7 5.2 0.00 0.13 0.00 54 1014.0
20260507082054 67 93 1.7 5.2 0.00 0.13 0.00 52 1013.8
20260507081556 67 80 1.7 5.2 0.00 0.13 0.00 51 1013.8
20260507081050 67 162 0.9 3.5 0.00 0.13 0.00 54 1013.8
20260507080550 67 219 1.7 3.5 0.00 0.13 0.00 56 1013.7
20260507080055 67 88 0.0 2.6 0.00 0.13 0.00 57 1013.8
20260507075548 67 233 0.9 2.6 0.00 0.18 0.00 57 1013.7
20260507075047 66 163 0.0 2.6 0.00 0.18 0.00 60 1013.8
20260507074553 66 161 0.9 3.5 0.00 0.18 0.00 60 1013.7
20260507074047 65 0 0.9 3.5 0.00 0.18 0.00 63 1013.8
20260507073547 65 162 0.9 3.5 0.00 0.18 0.00 61 1013.7
20260507073054 65 139 0.9 3.5 0.00 0.18 0.00 64 1013.8
20260507072551 64 124 0.9 4.3 0.00 0.18 0.00 63 1013.6
20260507072050 64 130 1.7 4.3 0.00 0.18 0.00 65 1013.7
20260507071557 64 115 0.0 5.2 0.00 0.18 0.00 63 1013.7
20260507071050 64 97 1.7 6.1 0.00 0.18 0.00 65 1013.7
20260507070551 63 223 0.9 6.1 0.00 0.18 0.00 66 1013.6
20260507065548 62 160 0.9 8.7 0.00 0.31 0.00 67 1013.5
20260507065050 61 103 1.7 8.7 0.00 0.31 0.00 67 1013.5
20260507064556 61 135 2.6 8.7 0.00 0.31 0.00 67 1013.5
20260507064049 61 180 2.6 7.0 0.00 0.31 0.00 68 1013.5
20260507063547 60 119 2.6 7.0 0.00 0.31 0.00 69 1013.6
20260507063057 60 104 1.7 7.0 0.00 0.31 0.00 69 1013.5
20260507062548 60 115 1.7 7.0 0.00 0.31 0.00 71 1013.4
20260507062048 60 219 1.7 6.1 0.00 0.31 0.00 71 1013.4
20260507061555 59 117 2.6 6.1 0.00 0.31 0.00 72 1013.5
20260507061047 59 109 0.9 6.1 0.00 0.31 0.00 72 1013.5
20260507060551 58 136 2.6 6.1 0.00 0.31 0.00 73 1013.3
20260507060104 58 84 2.6 5.2 0.00 0.31 0.00 73 1013.2
20260507055553 58 83 1.7 4.3 0.00 0.46 0.00 73 1013.2
20260507055050 58 117 0.9 4.3 0.00 0.46 0.00 75 1013.3
20260507054559 58 104 1.7 4.3 0.00 0.46 0.00 75 1013.2
20260507054051 58 72 1.7 3.5 0.00 0.46 0.00 75 1013.1
20260507053551 57 0 0.0 3.5 0.00 0.46 0.00 78 1013.0
20260507053056 56 0 0.0 3.5 0.00 0.46 0.00 82 1013.0
20260507052550 55 153 0.9 2.6 0.00 0.46 0.00 83 1013.0
20260507052050 54 95 0.9 2.6 0.00 0.46 0.00 84 1013.0
20260507051553 53 0 0.0 2.6 0.00 0.46 0.00 85 1013.0
20260507051051 52 17 0.0 2.6 0.00 0.46 0.00 86 1012.9
20260507050548 52 103 0.0 1.7 0.00 0.46 0.00 87 1012.9
20260507050100 51 0 0.0 1.7 0.00 0.46 0.00 87 1012.8
20260507045553 51 0 0.0 0.9 0.00 0.69 0.00 87 1012.7
20260507045048 51 0 0.0 0.9 0.00 0.69 0.00 86 1012.8
20260507044552 51 0 0.0 0.0 0.00 0.69 0.00 87 1012.8
20260507044047 50 0 0.0 0.0 0.00 0.69 0.00 88 1012.6
20260507043550 49 0 0.0 0.9 0.00 0.69 0.00 90 1012.5
20260507043058 48 0 0.0 0.9 0.00 0.69 0.00 91 1012.6
20260507042551 48 0 0.0 0.9 0.00 0.69 0.00 91 1012.5
20260507042053 48 0 0.0 0.9 0.00 0.69 0.00 91 1012.4
20260507041556 48 0 0.0 0.9 0.00 0.69 0.00 91 1012.4
20260507041052 48 0 0.0 0.0 0.00 0.69 0.00 92 1012.4
20260507040551 48 0 0.0 0.0 0.00 0.69 0.00 91 1012.3
20260507040101 48 0 0.0 0.0 0.00 0.69 0.00 91 1012.3
20260507035550 48 0 0.0 0.0 0.00 0.78 0.00 91 1012.3
20260507035050 49 0 0.0 0.0 0.00 0.78 0.00 90 1012.2
20260507034559 49 0 0.0 0.0 0.00 0.78 0.00 90 1012.2
20260507034049 49 0 0.0 0.9 0.00 0.78 0.00 90 1012.1
20260507033552 49 0 0.0 0.9 0.00 0.78 0.00 89 1012.0
20260507033054 50 0 0.0 0.9 0.00 0.78 0.00 90 1012.1
20260507032551 49 259 0.9 0.9 0.00 0.78 0.00 91 1012.1
20260507032052 49 0 0.0 0.9 0.00 0.78 0.00 91 1012.1
20260507031553 49 0 0.0 0.9 0.00 0.78 0.00 91 1012.1
20260507031052 49 0 0.0 0.9 0.00 0.78 0.00 91 1011.9
20260507030550 49 0 0.0 0.9 0.00 0.78 0.00 91 1011.9
20260507030056 49 0 0.0 0.9 0.00 0.78 0.00 91 1012.0
20260507025552 50 256 0.0 0.9 0.00 0.92 0.00 90 1011.9
20260507025050 50 0 0.0 0.0 0.00 0.92 0.00 90 1011.9
20260507024558 50 0 0.0 0.0 0.00 0.92 0.00 90 1011.9
20260507024048 50 0 0.0 0.9 0.00 0.92 0.00 90 1011.8
20260507023548 50 0 0.0 0.9 0.00 0.92 0.00 89 1011.8
20260507023054 51 0 0.0 0.9 0.00 0.92 0.00 89 1011.6
20260507022548 51 283 0.0 0.9 0.00 0.92 0.00 89 1011.8
20260507022051 52 0 0.0 0.0 0.00 0.92 0.00 88 1011.7
20260507021557 52 0 0.0 0.9 0.00 0.92 0.00 88 1011.7
20260507021050 52 0 0.0 0.9 0.00 0.92 0.00 87 1011.7
20260507020554 52 217 0.0 0.9 0.00 0.92 0.00 87 1011.7
20260507020057 53 0 0.0 0.9 0.00 0.92 0.00 86 1011.7
20260507015550 53 0 0.0 1.7 0.00 1.07 0.00 85 1011.7
20260507015048 54 0 0.0 1.7 0.00 1.07 0.00 83 1011.7
20260507014552 54 0 0.0 3.5 0.00 1.07 0.00 82 1011.8
20260507014050 55 0 0.0 3.5 0.00 1.07 0.00 81 1011.7
20260507013551 54 203 0.9 3.5 0.00 1.07 0.00 84 1011.5
20260507013050 54 0 0.0 1.7 0.00 1.07 0.00 85 1011.5
20260507012551 53 6 0.9 1.7 0.00 1.07 0.00 87 1011.6
20260507012048 52 255 0.0 0.9 0.00 1.07 0.00 88 1011.5
20260507011552 52 255 0.0 0.9 0.00 1.07 0.00 89 1011.4
20260507011047 52 0 0.0 0.9 0.00 1.07 0.00 89 1011.4
20260507010551 52 0 0.0 0.9 0.00 1.07 0.00 90 1011.4
20260507010110 51 0 0.0 0.9 0.00 1.07 0.00 90 1011.4
20260507005551 51 0 0.0 0.0 0.00 1.25 0.00 89 1011.4
20260507005052 52 0 0.0 0.9 0.00 1.25 0.00 88 1011.4
20260507004556 52 0 0.0 0.9 0.00 1.25 0.00 89 1011.5
20260507004051 51 0 0.0 0.9 0.00 1.25 0.00 90 1011.5
20260507003552 52 0 0.0 0.9 0.00 1.25 0.00 89 1011.4
20260507003057 52 0 0.0 0.9 0.00 1.25 0.00 89 1011.5
20260507002548 52 0 0.0 0.9 0.00 1.25 0.00 90 1011.5
20260507002050 52 0 0.0 0.9 0.00 1.25 0.00 89 1011.5
20260507001557 52 0 0.0 0.0 0.00 1.25 0.00 89 1011.5
20260507001050 52 0 0.0 0.0 0.00 1.25 0.00 88 1011.5
20260507000555 52 0 0.0 0.0 0.00 1.25 0.00 87 1011.6
20260507000056 53 0 0.0 0.0 0.00 1.25 0.00 87 1011.7
20260506235551 53 0 0.0 0.9 0.00 1.28 0.00 87 1011.6
20260506235050 53 0 0.0 0.9 0.00 1.28 0.00 87 1011.6
20260506234602 53 0 0.0 0.9 0.00 1.28 0.00 86 1011.5
20260506234050 53 0 0.0 0.9 0.00 1.28 0.00 85 1011.6
20260506233551 54 0 0.0 0.9 0.00 1.28 0.00 85 1011.6
20260506233100 54 0 0.0 0.9 0.00 1.28 0.00 84 1011.6
20260506232550 54 202 0.0 1.7 0.00 1.28 0.00 85 1011.6
20260506232048 54 231 0.0 1.7 0.00 1.28 0.00 85 1011.7
20260506231557 54 0 0.9 2.6 0.00 1.28 0.00 85 1011.7
20260506231048 54 0 0.9 2.6 0.00 1.28 0.00 85 1011.7
20260506230550 54 0 0.0 0.9 0.00 1.28 0.00 84 1011.8
20260506230057 54 243 0.0 0.9 0.00 1.28 0.00 84 1011.7
20260506225551 54 0 0.0 0.9 0.00 1.28 0.00 84 1011.8
20260506225053 54 0 0.0 0.9 0.00 1.28 0.00 83 1011.8
20260506224554 55 245 0.0 1.7 0.00 1.28 0.00 83 1011.8
20260506224050 55 0 0.0 2.6 0.00 1.28 0.00 83 1011.7
20260506223550 55 0 0.0 2.6 0.00 1.28 0.00 83 1011.8
20260506223059 55 273 0.0 1.7 0.00 1.28 0.00 83 1011.6
20260506222550 55 0 0.0 4.3 0.00 1.28 0.00 83 1011.6
20260506222051 55 318 0.9 4.3 0.00 1.28 0.00 83 1011.5
20260506221551 55 340 0.9 2.6 0.00 1.28 0.00 82 1011.5
20260506221050 55 0 0.0 0.9 0.00 1.28 0.00 81 1011.5
20260506220550 55 0 0.0 0.9 0.00 1.28 0.00 81 1011.4
20260506220054 55 0 0.0 1.7 0.00 1.28 0.00 82 1011.3
20260506215549 55 0 0.0 1.7 0.00 1.28 1.28 82 1011.4
20260506215048 56 0 0.0 1.7 0.00 1.28 1.28 81 1011.3
20260506214556 56 0 0.0 1.7 0.00 1.28 1.28 80 1011.3
20260506214051 55 0 0.0 1.7 0.00 1.28 1.28 80 1011.2
20260506213551 56 0 0.0 1.7 0.00 1.28 1.28 81 1011.2
20260506213056 56 106 0.0 0.9 0.00 1.28 1.28 80 1011.3
20260506212551 56 134 0.0 0.9 0.00 1.28 1.28 80 1011.2
20260506212051 56 0 0.0 0.9 0.00 1.28 1.28 79 1011.2
20260506211554 56 0 0.0 0.9 0.00 1.28 1.28 79 1011.2
20260506211050 57 0 0.0 0.9 0.00 1.28 1.28 78 1011.2
20260506210554 57 0 0.0 1.7 0.00 1.28 1.28 76 1011.1
20260506210053 58 0 0.0 1.7 0.00 1.28 1.28 75 1011.1
20260506205550 58 0 0.0 0.9 0.00 1.28 1.28 72 1011.1
20260506205051 58 0 0.0 0.9 0.00 1.28 1.28 73 1011.0
20260506204555 58 167 0.0 0.9 0.00 1.28 1.28 73 1010.9
20260506204055 58 0 0.0 1.7 0.00 1.28 1.28 73 1011.0
20260506203551 58 155 0.0 1.7 0.00 1.28 1.28 73 1011.1
20260506203053 58 158 0.0 0.9 0.00 1.28 1.28 74 1011.0
20260506202553 58 0 0.0 0.9 0.00 1.28 1.28 74 1011.0
20260506202051 57 137 0.0 0.9 0.00 1.28 1.28 75 1010.9